EW1710 Weather Reports


Display with metric or nautical units.
time (UTC)temp
F
wind
direction
speed
MPH
gust
MPH
rain 1hr
in
rain 24hr
in
rain mn
in
humidity
%
barometer
mb
20260901072148 76 102 0.0 0.0 0.00 0.00 0.00 80 1018.0
20260901071643 76 165 0.0 1.0 0.00 0.00 0.00 80 1018.0
20260901071142 76 149 0.0 0.0 0.00 0.00 0.00 80 1017.9
20260901070631 76 90 1.0 1.0 0.00 0.00 0.00 80 1017.8
20260901070127 76 154 0.0 0.0 0.00 0.00 0.00 79 1017.9
20260901065620 76 188 1.0 1.0 0.00 0.00 0.00 79 1018.0
20260901065115 76 208 1.0 1.0 0.00 0.00 0.00 79 1017.9
20260901064612 76 108 1.0 2.0 0.00 0.00 0.00 79 1018.0
20260901064108 76 139 1.0 1.0 0.00 0.00 0.00 79 1017.8
20260901063605 76 153 0.0 0.0 0.00 0.00 0.00 80 1017.9
20260901063100 76 124 0.0 0.0 0.00 0.00 0.00 80 1018.2
20260901062550 76 127 1.0 1.0 0.00 0.00 0.00 79 1018.4
20260901062046 76 193 1.0 1.0 0.00 0.00 0.00 79 1018.1
20260901061543 77 337 2.0 2.0 0.00 0.00 0.00 79 1018.1
20260901061043 77 144 2.0 2.0 0.00 0.00 0.00 78 1018.0
20260901060537 77 157 1.0 2.0 0.00 0.00 0.00 78 1018.1
20260901060032 77 191 2.0 2.0 0.00 0.00 0.00 78 1018.5
20260901055527 77 120 1.0 1.0 0.00 0.00 0.00 78 1018.4
20260901055024 77 91 0.0 0.0 0.00 0.00 0.00 79 1018.3
20260901054521 77 115 0.0 0.0 0.00 0.00 0.00 79 1018.1
20260901054017 77 159 1.0 1.0 0.00 0.00 0.00 79 1018.1
20260901053512 76 163 0.0 1.0 0.00 0.00 0.00 79 1018.4
20260901053009 76 160 1.0 1.0 0.00 0.00 0.00 79 1018.6
20260901052504 76 101 0.0 0.0 0.00 0.00 0.00 79 1018.6
20260901052003 76 138 1.0 1.0 0.00 0.00 0.00 80 1018.5
20260901051458 77 162 1.0 1.0 0.00 0.00 0.00 79 1018.5
20260901050957 77 152 0.0 0.0 0.00 0.00 0.00 79 1018.4
20260901050452 77 47 0.0 0.0 0.00 0.00 0.00 79 1018.6
20260901045946 76 56 1.0 1.0 0.00 0.00 0.00 79 1018.4
20260901045442 76 114 0.0 0.0 0.00 0.00 0.00 80 1018.5
20260901044937 75 161 0.0 0.0 0.00 0.00 0.00 82 1018.7
20260901044432 74 195 3.0 2.0 0.00 0.00 0.00 84 1018.5
20260901043928 74 138 0.0 0.0 0.00 0.00 0.00 87 1018.5
20260901043424 73 137 0.0 1.0 0.00 0.00 0.00 88 1018.3
20260901042918 73 163 0.0 0.0 0.00 0.00 0.00 90 1018.6
20260901042413 73 163 0.0 0.0 0.00 0.00 0.00 92 1018.2
20260901041908 72 151 0.0 0.0 0.00 0.00 0.00 94 1018.3
20260901041403 72 151 0.0 0.0 0.00 0.00 0.00 95 1018.5
20260901040902 72 151 0.0 0.0 0.00 0.00 0.00 95 1018.3
20260901040401 71 151 1.0 1.0 0.00 0.00 0.00 95 1018.5
20260901035856 71 150 0.0 0.0 0.00 0.00 0.00 95 1018.5
20260901035354 71 150 0.0 0.0 0.00 0.00 0.00 95 1018.7
20260901034853 71 150 0.0 0.0 0.00 0.00 0.00 95 1018.6
20260901034348 71 150 0.0 0.0 0.00 0.00 0.00 95 1018.7
20260901033843 71 150 0.0 0.0 0.00 0.00 0.00 95 1018.7
20260901033342 71 150 0.0 0.0 0.00 0.00 0.00 95 1018.7
20260901032841 71 149 0.0 0.0 0.00 0.00 0.00 95 1018.6
20260901032341 71 150 1.0 1.0 0.00 0.00 0.00 95 1018.7
20260901031836 71 149 0.0 0.0 0.00 0.00 0.00 95 1018.5
20260901031332 71 165 0.0 0.0 0.00 0.00 0.00 95 1018.4
20260901030831 71 165 0.0 0.0 0.00 0.00 0.00 95 1018.5
20260901030327 71 166 0.0 0.0 0.00 0.00 0.00 95 1018.6
20260901025825 71 166 0.0 0.0 0.00 0.00 0.00 94 1018.6
20260901025320 71 166 0.0 0.0 0.00 0.00 0.00 94 1018.6
20260901024810 71 166 0.0 0.0 0.00 0.00 0.00 94 1018.3
20260901024308 71 166 0.0 0.0 0.00 0.00 0.00 94 1018.4
20260901023806 71 166 0.0 0.0 0.00 0.00 0.00 94 1018.3
20260901023256 72 166 0.0 0.0 0.00 0.00 0.00 94 1018.4
20260901022752 72 194 0.0 0.0 0.00 0.00 0.00 94 1018.3
20260901022248 72 196 0.0 0.0 0.00 0.00 0.00 94 1018.5
20260901021742 72 196 0.0 0.0 0.00 0.00 0.00 93 1018.5
20260901021238 72 191 1.0 1.0 0.00 0.00 0.00 93 1018.7
20260901020733 72 167 0.0 0.0 0.00 0.00 0.00 92 1018.5
20260901020228 73 168 0.0 0.0 0.00 0.00 0.00 92 1018.5
20260901015723 73 167 0.0 0.0 0.00 0.00 0.00 92 1018.8
20260901015219 73 167 0.0 0.0 0.00 0.00 0.00 91 1018.9
20260901014718 73 167 0.0 0.0 0.00 0.00 0.00 90 1019.0
20260901014214 74 167 0.0 0.0 0.00 0.00 0.00 90 1018.8
20260901013710 74 167 0.0 0.0 0.00 0.00 0.00 90 1018.7
20260901013206 74 169 0.0 0.0 0.00 0.00 0.00 89 1018.6
20260901012701 75 156 0.0 0.0 0.00 0.00 0.00 88 1018.7
20260901012156 75 156 0.0 0.0 0.00 0.00 0.00 87 1018.7
20260901011651 75 156 0.0 0.0 0.00 0.00 0.00 86 1018.6
20260901011150 76 157 1.0 1.0 0.00 0.00 0.00 85 1018.5
20260901010645 77 140 0.0 0.0 0.00 0.00 0.00 83 1018.3
20260901010145 77 140 0.0 0.0 0.00 0.00 0.00 82 1018.0
20260901005644 78 140 0.0 0.0 0.00 0.00 0.00 80 1018.1
20260901005139 78 140 0.0 0.0 0.00 0.00 0.00 77 1017.9
20260901004638 79 105 0.0 0.0 0.00 0.00 0.00 75 1018.1
20260901004133 79 115 0.0 0.0 0.00 0.00 0.00 73 1018.1
20260901003628 79 174 2.0 2.0 0.00 0.00 0.00 73 1018.2
20260901003127 79 148 0.0 1.0 0.00 0.00 0.00 73 1018.3
20260901002622 80 35 1.0 2.0 0.00 0.00 0.00 73 1018.6
20260901002116 80 28 2.0 2.0 0.00 0.00 0.00 73 1018.5
20260901001612 79 259 2.0 2.0 0.00 0.00 0.00 73 1018.5
20260901001107 79 166 0.0 1.0 0.00 0.00 0.00 74 1018.5
20260901000602 79 116 2.0 1.0 0.00 0.00 0.00 75 1018.9
20260901000057 78 76 1.0 1.0 0.00 0.00 0.00 75 1018.8
20260831235550 78 165 0.0 0.0 0.00 0.00 0.00 77 1018.9
20260831235046 77 71 0.0 0.0 0.00 0.00 0.00 78 1018.6
20260831234540 77 179 1.0 1.0 0.00 0.00 0.00 82 1018.8
20260831234037 77 180 1.0 1.0 0.00 0.00 0.00 82 1019.0
20260831233536 78 180 0.0 0.0 0.00 0.00 0.00 83 1018.9
20260831233033 78 180 0.0 0.0 0.00 0.00 0.00 82 1018.9
20260831232527 78 180 0.0 0.0 0.00 0.00 0.00 81 1018.9
20260831232023 78 180 0.0 0.0 0.00 0.00 0.00 81 1019.0
20260831231520 79 181 0.0 0.0 0.00 0.00 0.00 80 1018.9
20260831231015 79 182 1.0 1.0 0.00 0.00 0.00 79 1019.2
20260831230510 80 325 0.0 0.0 0.00 0.00 0.00 79 1019.1
20260831230005 80 328 1.0 1.0 0.00 0.00 0.00 76 1019.1
20260831225501 81 335 0.0 0.0 0.00 0.00 0.00 76 1018.9
20260831225000 82 336 0.0 0.0 0.00 0.00 0.00 74 1019.3
20260831224455 82 336 0.0 0.0 0.00 0.00 0.00 74 1019.2
20260831223950 82 336 0.0 0.0 0.00 0.00 0.00 71 1019.2
20260831223445 83 319 0.0 0.0 0.00 0.00 0.00 68 1019.3
20260831222941 84 316 2.0 1.0 0.00 0.00 0.00 67 1019.0
20260831222437 84 352 2.0 3.0 0.00 0.00 0.00 61 1019.1
20260831221932 86 192 1.0 1.0 0.00 0.00 0.00 65 1019.1
20260831221428 86 120 0.0 0.0 0.00 0.00 0.00 64 1019.2
20260831220923 86 136 0.0 0.0 0.00 0.00 0.00 57 1019.2
20260831220418 85 334 2.0 2.0 0.00 0.00 0.00 58 1019.3
20260831215913 85 340 1.0 1.0 0.00 0.00 0.00 60 1019.2
20260831215409 85 122 0.0 0.0 0.00 0.00 0.00 62 1019.0
20260831214905 85 334 1.0 1.0 0.00 0.00 0.00 60 1019.0
20260831214403 85 301 1.0 1.0 0.00 0.00 0.00 60 1019.2
20260831213858 86 297 1.0 1.0 0.00 0.00 0.00 58 1018.9
20260831213354 85 32 1.0 1.0 0.00 0.00 0.00 57 1019.1
20260831212849 85 46 1.0 1.0 0.00 0.00 0.00 59 1019.2
20260831212346 85 356 1.0 1.0 0.00 0.00 0.00 60 1019.0
20260831211844 84 201 1.0 1.0 0.00 0.00 0.00 58 1019.0
20260831211339 85 323 1.0 1.0 0.00 0.00 0.00 58 1019.2
20260831210838 85 44 3.0 3.0 0.00 0.00 0.00 59 1019.4
20260831210335 85 349 0.0 0.0 0.00 0.00 0.00 61 1019.6
20260831205829 86 316 1.0 1.0 0.00 0.00 0.00 58 1019.4
20260831205325 86 307 2.0 2.0 0.00 0.00 0.00 58 1019.4
20260831204820 86 16 2.0 2.0 0.00 0.00 0.00 59 1019.2
20260831204319 87 309 4.0 5.0 0.00 0.00 0.00 56 1019.3
20260831203818 87 235 2.0 2.0 0.00 0.00 0.00 57 1019.4
20260831203313 87 239 2.0 2.0 0.00 0.00 0.00 58 1019.2
20260831202811 86 327 2.0 1.0 0.00 0.00 0.00 55 1019.0
20260831202306 86 299 2.0 2.0 0.00 0.00 0.00 57 1019.0
20260831201800 85 356 1.0 1.0 0.00 0.00 0.00 60 1019.1
20260831201259 85 340 2.0 2.0 0.00 0.00 0.00 60 1019.3
20260831200755 85 317 1.0 1.0 0.00 0.00 0.00 61 1019.4
20260831200250 84 296 2.0 2.0 0.00 0.00 0.00 59 1019.2
20260831195745 84 327 0.0 0.0 0.00 0.00 0.00 61 1019.4
20260831195241 84 21 1.0 1.0 0.00 0.00 0.00 61 1018.9
20260831194735 84 0 1.0 1.0 0.00 0.00 0.00 60 1019.0
20260831194232 84 73 1.0 1.0 0.00 0.00 0.00 62 1019.1
20260831193725 84 31 0.0 0.0 0.00 0.00 0.00 65 1019.3
20260831193221 84 22 1.0 1.0 0.00 0.00 0.00 62 1019.4
20260831192716 84 315 1.0 2.0 0.00 0.00 0.00 59 1019.6
20260831192211 84 22 1.0 2.0 0.00 0.00 0.00 59 1019.6
20260831191707 84 290 0.0 0.0 0.00 0.00 0.00 60 1019.8
20260831191203 85 343 3.0 3.0 0.00 0.00 0.00 60 1019.9
20260831190658 86 319 3.0 5.0 0.00 0.00 0.00 58 1019.8
20260831190157 86 284 3.0 2.0 0.00 0.00 0.00 57 1019.6
20260831185652 86 340 4.0 5.0 0.00 0.00 0.00 54 1019.9
20260831185147 87 343 8.0 10.0 0.00 0.00 0.00 54 1019.9
20260831184641 87 337 3.0 5.0 0.00 0.00 0.00 57 1019.9
20260831184137 87 38 3.0 5.0 0.00 0.00 0.00 53 1020.1
20260831183631 88 310 7.0 9.0 0.00 0.00 0.00 55 1020.1
20260831183130 87 308 2.0 2.0 0.00 0.00 0.00 58 1020.2
20260831182629 86 283 1.0 1.0 0.00 0.00 0.00 60 1020.1
20260831182126 86 320 7.0 8.0 0.00 0.00 0.00 59 1020.2
20260831181625 85 339 3.0 3.0 0.00 0.00 0.00 61 1020.3
20260831181120 86 318 4.0 5.0 0.00 0.00 0.00 59 1020.4
20260831180615 86 353 2.0 2.0 0.00 0.00 0.00 61 1020.4
20260831180110 86 40 3.0 3.0 0.00 0.00 0.00 58 1020.4
20260831175604 85 10 1.0 1.0 0.00 0.00 0.00 61 1020.5
20260831175102 84 157 1.0 2.0 0.00 0.00 0.00 61 1020.5
20260831174556 84 273 2.0 2.0 0.00 0.00 0.00 62 1020.6
20260831174056 84 319 3.0 2.0 0.00 0.00 0.00 62 1020.4
20260831173554 84 17 1.0 1.0 0.00 0.00 0.00 62 1020.4
20260831173051 85 36 3.0 3.0 0.00 0.00 0.00 61 1020.7
20260831172545 85 304 4.0 5.0 0.00 0.00 0.00 60 1020.4
20260831172040 85 340 2.0 3.0 0.00 0.00 0.00 61 1020.5
20260831171536 86 202 5.0 8.0 0.00 0.00 0.00 59 1020.7
20260831171032 86 290 3.0 3.0 0.00 0.00 0.00 59 1020.6
20260831170528 86 77 1.0 1.0 0.00 0.00 0.00 61 1020.6
20260831170026 85 349 3.0 3.0 0.00 0.00 0.00 59 1020.6
20260831165526 86 317 2.0 2.0 0.00 0.00 0.00 58 1020.8
20260831165023 87 293 4.0 5.0 0.00 0.00 0.00 58 1020.5
20260831164518 87 42 2.0 3.0 0.00 0.00 0.00 59 1020.7
20260831164014 88 34 2.0 2.0 0.00 0.00 0.00 55 1020.7
20260831163509 86 45 1.0 1.0 0.00 0.00 0.00 59 1020.5
20260831163004 86 16 2.0 3.0 0.00 0.00 0.00 57 1020.8
20260831162458 87 8 3.0 5.0 0.00 0.00 0.00 56 1020.6
20260831161955 87 299 6.0 8.0 0.00 0.00 0.00 57 1020.7
20260831161453 86 166 3.0 3.0 0.00 0.00 0.00 58 1020.5
20260831160948 85 184 2.0 2.0 0.00 0.00 0.00 63 1020.7
20260831160447 84 304 2.0 2.0 0.00 0.00 0.00 62 1020.7
20260831155948 83 87 1.0 1.0 0.00 0.00 0.00 62 1020.6
20260831155442 84 353 2.0 3.0 0.00 0.00 0.00 63 1020.8
20260831154938 84 302 4.0 5.0 0.00 0.00 0.00 57 1020.5
20260831154434 85 290 2.0 2.0 0.00 0.00 0.00 58 1020.9
20260831153933 85 170 2.0 2.0 0.00 0.00 0.00 59 1020.8
20260831153429 85 79 1.0 1.0 0.00 0.00 0.00 58 1020.7
20260831152925 85 128 1.0 1.0 0.00 0.00 0.00 63 1020.8
20260831152420 84 226 2.0 2.0 0.00 0.00 0.00 60 1020.8
20260831151915 84 71 1.0 1.0 0.00 0.00 0.00 59 1020.8
20260831151414 84 75 1.0 1.0 0.00 0.00 0.00 61 1020.7
20260831150910 84 82 1.0 1.0 0.00 0.00 0.00 63 1020.7
20260831150405 84 96 2.0 2.0 0.00 0.00 0.00 63 1020.9
20260831145904 84 173 2.0 2.0 0.00 0.00 0.00 63 1020.9
20260831145401 82 118 1.0 3.0 0.00 0.00 0.00 69 1020.6
20260831144856 82 37 3.0 5.0 0.00 0.00 0.00 67 1020.9
20260831144352 81 16 2.0 3.0 0.00 0.00 0.00 68 1020.7
20260831143847 81 73 1.0 1.0 0.00 0.00 0.00 68 1020.7
20260831143342 81 12 2.0 2.0 0.00 0.00 0.00 70 1020.7
20260831142837 80 77 1.0 1.0 0.00 0.00 0.00 72 1020.6
20260831142332 79 317 2.0 2.0 0.00 0.00 0.00 75 1020.8
20260831141832 78 297 3.0 3.0 0.00 0.00 0.00 77 1020.9
20260831141327 77 209 0.0 1.0 0.00 0.00 0.00 79 1020.7
20260831140822 77 334 1.0 2.0 0.00 0.00 0.00 79 1020.5
20260831140316 76 51 0.0 0.0 0.00 0.00 0.00 80 1020.8
20260831135814 76 265 1.0 1.0 0.00 0.00 0.00 80 1020.5
20260831135310 76 116 0.0 0.0 0.00 0.00 0.00 80 1020.8
20260831134805 76 34 1.0 1.0 0.00 0.00 0.00 79 1020.7
20260831134302 76 153 3.0 3.0 0.00 0.00 0.00 77 1020.8
20260831133800 77 160 0.0 1.0 0.00 0.00 0.00 77 1020.6
20260831133255 77 57 0.0 0.0 0.00 0.00 0.00 77 1021.0
20260831132750 77 28 1.0 1.0 0.00 0.00 0.00 75 1020.6
20260831132245 78 10 2.0 2.0 0.00 0.00 0.00 74 1020.6
20260831131744 78 147 1.0 1.0 0.00 0.00 0.00 74 1020.6
20260831131241 78 144 0.0 0.0 0.00 0.00 0.00 73 1020.7
20260831130736 77 150 0.0 0.0 0.00 0.00 0.00 75 1021.1
20260831130231 76 159 1.0 1.0 0.00 0.00 0.00 76 1020.6
20260831125730 76 278 1.0 1.0 0.00 0.00 0.00 77 1020.9
20260831125226 75 144 0.0 0.0 0.00 0.00 0.00 79 1020.7
20260831124720 74 339 1.0 0.0 0.00 0.00 0.00 80 1020.8
20260831124217 74 156 0.0 0.0 0.00 0.00 0.00 83 1020.7
20260831123716 74 108 0.0 0.0 0.00 0.00 0.00 83 1020.4
20260831123215 74 66 2.0 2.0 0.00 0.00 0.00 82 1020.8
20260831122710 74 71 0.0 0.0 0.00 0.00 0.00 81 1020.7
20260831122206 73 348 2.0 2.0 0.00 0.00 0.00 82 1020.4
20260831121705 73 168 0.0 1.0 0.00 0.00 0.00 82 1020.7
20260831121202 73 334 1.0 1.0 0.00 0.00 0.00 82 1020.7
20260831120657 73 165 1.0 1.0 0.00 0.00 0.00 83 1020.5
20260831120151 73 158 1.0 2.0 0.00 0.00 0.00 83 1020.7
20260831115647 73 103 0.0 0.0 0.00 0.00 0.00 82 1020.6
20260831115143 73 117 0.0 0.0 0.00 0.00 0.00 82 1020.8
20260831114642 73 169 2.0 2.0 0.00 0.00 0.00 83 1020.7
20260831114136 73 62 0.0 0.0 0.00 0.00 0.00 83 1020.7
20260831113636 73 188 1.0 1.0 0.00 0.00 0.00 83 1020.8
20260831113131 72 164 1.0 1.0 0.00 0.00 0.00 84 1021.0
20260831112631 72 187 1.0 1.0 0.00 0.00 0.00 85 1021.0
20260831112126 72 66 1.0 1.0 0.00 0.00 0.00 84 1020.8
20260831111622 72 89 0.0 1.0 0.00 0.00 0.00 84 1020.7
20260831111117 72 169 0.0 0.0 0.00 0.00 0.00 84 1020.5
20260831110612 72 145 0.0 0.0 0.00 0.00 0.00 84 1020.5
20260831105601 72 161 1.0 1.0 0.00 0.00 0.00 85 1020.4
20260831105056 72 153 1.0 1.0 0.00 0.00 0.00 85 1020.4
20260831104552 72 93 0.0 0.0 0.00 0.00 0.00 85 1020.1
20260831104048 72 127 0.0 0.0 0.00 0.00 0.00 85 1020.4
20260831103543 71 66 0.0 0.0 0.00 0.00 0.00 85 1020.2
20260831103039 71 129 0.0 0.0 0.00 0.00 0.00 85 1020.1
20260831102533 71 154 1.0 1.0 0.00 0.00 0.00 86 1020.0
20260831102028 71 97 0.0 0.0 0.00 0.00 0.00 86 1020.0
20260831101523 72 118 0.0 0.0 0.00 0.00 0.00 86 1020.0
20260831101019 71 143 1.0 1.0 0.00 0.00 0.00 85 1019.9
20260831100515 71 172 0.0 1.0 0.00 0.00 0.00 85 1019.9
20260831100011 71 148 0.0 0.0 0.00 0.00 0.00 86 1020.2
20260831095509 71 165 0.0 0.0 0.00 0.00 0.00 86 1020.0
20260831095004 71 111 0.0 0.0 0.00 0.00 0.00 87 1020.0
20260831094500 71 104 0.0 0.0 0.00 0.00 0.00 87 1019.9
20260831093955 71 131 0.0 0.0 0.00 0.00 0.00 87 1020.0
20260831093450 71 104 0.0 0.0 0.00 0.00 0.00 87 1019.8
20260831092947 71 139 1.0 1.0 0.00 0.00 0.00 86 1019.9
20260831092442 71 105 0.0 0.0 0.00 0.00 0.00 86 1020.1
20260831091937 71 121 0.0 0.0 0.00 0.00 0.00 85 1019.9
20260831091433 71 118 0.0 0.0 0.00 0.00 0.00 85 1020.0
20260831090927 72 133 0.0 0.0 0.00 0.00 0.00 85 1019.9
20260831090424 72 153 1.0 1.0 0.00 0.00 0.00 84 1020.2
20260831085919 72 152 1.0 0.0 0.00 0.00 0.00 84 1020.3
20260831085415 72 162 0.0 0.0 0.00 0.00 0.00 84 1020.2
20260831084914 71 137 0.0 0.0 0.00 0.00 0.00 85 1019.9
20260831084410 71 154 0.0 1.0 0.00 0.00 0.00 85 1020.0
20260831083907 71 139 0.0 0.0 0.00 0.00 0.00 85 1020.0
20260831083402 72 136 0.0 0.0 0.00 0.00 0.00 84 1020.2
20260831082900 72 86 0.0 0.0 0.00 0.00 0.00 84 1019.9
20260831082400 72 117 0.0 0.0 0.00 0.00 0.00 84 1020.1
20260831081856 71 103 0.0 0.0 0.00 0.00 0.00 85 1019.9
20260831081351 71 129 0.0 0.0 0.00 0.00 0.00 85 1019.8
20260831080847 71 142 0.0 0.0 0.00 0.00 0.00 85 1020.0
20260831080342 71 106 0.0 0.0 0.00 0.00 0.00 84 1020.1
20260831075838 71 137 0.0 0.0 0.00 0.00 0.00 85 1020.2
20260831075332 71 134 0.0 0.0 0.00 0.00 0.00 85 1020.1
20260831074828 71 138 0.0 0.0 0.00 0.00 0.00 86 1020.1
20260831074327 71 128 0.0 0.0 0.00 0.00 0.00 86 1019.9
20260831073823 71 168 1.0 1.0 0.00 0.00 0.00 86 1020.1
20260831073321 71 169 2.0 2.0 0.00 0.00 0.00 86 1020.1
20260831072817 71 141 0.0 0.0 0.00 0.00 0.00 86 1020.3
20260831072313 71 74 1.0 1.0 0.00 0.00 0.00 87 1020.1